Voltar ao catálogo

FENGYUN 1C DEB

LostSSO
NORAD 37475·DEBRIS·🇨🇳 China

Lançado May 10, 1999 de Taiyuan Satellite Launch Center

Loading…

Próximas Passagens (próximas 24 horas)

TLE

ObsoletoSource: Space-Track

Época: Jan 30, 2023, 08:03 UTC

1 37475U 99025EJV 23030.33577359  .00004946  00000-0  18994-2 0  9997
2 37475  98.9523 169.0322 0108420 312.3565  46.8473 14.27733820497365

Acompanhe FENGYUN 1C DEB em tempo real com AllMySat

Download on the App Store